Location: Chandrammap?lem
(16.9200°N, 81.0051°E)
Time: 14:44:47
(UTC+00:00)

Cosmos 494 Rocket - Pass Details

Date: 29 May 2024
Orbit: 740 x 768 km, 74.1° (Epoch: 18 June)

Event Time Altitude Azimuth Distance (km) Brightness Sun altitude
Rises 13:21:56 0° 183° (S) 3,164 7.0 -4.5°
Reaches altitude 10° 13:24:19 10° 178° (S) 2,241 6.2 -5.0°
Maximum altitude 13:29:15 54° 102° (ESE) 895 4.1 -6.1°
Drops below altitude 10° 13:34:11 10° 25° (NNE) 2,244 6.4 -7.2°
Sets 13:36:35 0° 21° (NNE) 3,169 7.3 -7.7°
